Regional Weather Roundup
Issued by NWS Kansas City/Pleasant Hill, MO

Home | Current Version | Previous Version | Text Only | Print | Product List | Glossary On
Versions: 1 2 3 4 5 6 7 8 9 10 11 12 13 14 15 16 17 18 19 20 21 22 23 24 25 26 27 28 29 30 31 32 33 34 35 36 37 38 39 40 41 42 43 44 45 46 47 48 49 50
000
ASUS43 KEAX 281711
RWREAX

WEATHER ROUNDUP FOR EASTERN KANSAS AND NORTHWEST MISSOURI
NATIONAL WEATHER SERVICE KANSAS CITY/PLEASANT HILL MO
1100 AM CST SUN DEC 28 2014

KSZ040-057-103>105-MOZ028-029-037-043-281800-
...KANSAS CITY METROPOLITAN AREA...

CITY           SKY/WX    TMP DP  RH WIND       PRES   REMARKS
K.C. INTL      MOSUNNY   31  23  72 SW10      30.22F WCI  22
K.C. DOWNTOWN  SUNNY     33  21  61 SW6       30.25F WCI  28
LEES SUMMIT    SUNNY     31  22  69 SW7       30.24F WCI  24
OLATHE - IXD   SUNNY     30  22  72 S9        30.25S WCI  22
OLATHE - OJC   SUNNY     30  21  69 S7        30.23F WCI  23
LAWRENCE       SUNNY     31  21  66 VRB5      30.25F WCI  26

$$

MOZ001>008-011>017-020>025-030>033-038>040-044>046-053-054-281800-
...NORTHERN AND CENTRAL MISSOURI...

CITY           SKY/WX    TMP DP  RH WIND       PRES   REMARKS
ST. JOSEPH     SUNNY     29  23  78 SW9       30.23S WCI  20
MOSBY          SUNNY     30  23  74 S5        30.25S WCI  25
WARRENSBURG    SUNNY     32  23  69 SW5       30.25F WCI  27
WHITEMAN AFB   SUNNY     19  18  93 SW3       30.26R
CLINTON        SUNNY     32  27  80 SW5       30.27F WCI  27
SEDALIA        MOSUNNY   29  23  78 SW6       30.26F WCI  23
WARSAW         NOT AVBL
MARSHALL       SUNNY     32  25  74 SW3       30.27S
CHILLICOTHE      N/A     30  22  72 S8        30.25F WCI  22
MOBERLY        SUNNY     32  21  64 SW8       30.25F WCI  25
KIRKSVILLE     SUNNY     30  20  66 SW8       30.22F WCI  22

$$

MOZ041-047>049-056>058-063>065-088>090-097-281800-
...EASTERN AND SOUTHERN MISSOURI...

CITY           SKY/WX    TMP DP  RH WIND       PRES   REMARKS
ST. LOUIS INTL CLOUDY    34  25  69 CALM      30.25S
SPIRIT OF STL  CLOUDY    32  24  72 N3        30.25F
COLUMBIA       PTSUNNY   29  22  75 W5        30.25F WCI  24
JEFFERSON CITY PTSUNNY   31  23  72 W3        30.27F
MEXICO         PTSUNNY   32  28  86 SW6       30.24F WCI  26
HANNIBAL       MOSUNNY   32  21  64 W6        30.24F WCI  26
ROLLA          CLOUDY    29  23  78 CALM      30.22S
LEBANON        CLOUDY    30  23  74 CALM      30.23F
OSAGE BEACH    CLOUDY    28  21  74 SW5       30.25F WCI  23
SPRINGFIELD    CLOUDY    29  23  78 N3        30.23F
BRANSON        PTSUNNY   32  25  74 CALM      30.24F
NEVADA         SUNNY     30  23  74 CALM      30.28F
JOPLIN         MOSUNNY   28  24  85 CALM      30.27F
WEST PLAINS    CLOUDY    30  23  75 NW5       30.22F WCI  25

$$

IAZ060-094-KSZ022-034>040-054-083-096-NEZ052-066-093-281800-
...KANSAS...SOUTHEAST NEBRASKA AND IOWA...

CITY           SKY/WX    TMP DP  RH WIND       PRES   REMARKS
TOPEKA         SUNNY     32  20  61 VRB3      30.24F
MANHATTAN      SUNNY     29  23  78 SW7       30.22S WCI  22
EMPORIA        SUNNY     33  24  69 VRB3      30.22F
CHANUTE        SUNNY     31  23  72 S3        30.26F
WICHITA        SUNNY     34  22  61 S12       30.21F WCI  25
OMAHA          MOSUNNY   26  17  68 CALM      30.17F
LINCOLN        SUNNY     26  16  65 W6        30.16F WCI  19
FALLS CITY     SUNNY     33  24  69 S10       30.19R WCI  25
LAMONI         SUNNY     27  22  81 SW13      30.18R WCI  16
DES MOINES     SUNNY     26  20  77 SW3       30.18S

$$




USA.gov is the U.S. government's official web portal to all federal, state and local government web resources and services.